Meteo Giornale » Osservazioni meteo Italia » Firenze-Peretola

ore: 07:20 - Osservazioni Meteo Firenze-Peretola
Lat. 43° 48' N Lon. 11° 12' E Alt. 40 metri s.l.m.

sereno Europe/Rome

21 °C

Sereno

Temp. 24 Ore

18 °C

33 °C

Nord

5.5 Km/h

Dew point 15 °C

Umidità 68 %

Visibilità  10 Km

Il sole sorge alle ore 06:24

Il sole tramonta alle ore 20:12

Data e Ora Cielo e Fenomeni T °C DP °C Um. % Pres. hPa Vis. km Vento km/h
Oggi h: 07:20 sereno Sereno 21 15 68 1014 10 N 5.5
Oggi h: 06:50 sereno Sereno 19 14 72 1014 10 N 7.4
Oggi h: 06:20 sereno Sereno 20 14 68 1014 10 N 5.5
Oggi h: 05:50 sereno Sereno 20 15 72 1014 10 S 7.4
Oggi h: 05:20 sereno Sereno 19 15 77 1014 10 S 7.4
Oggi h: 04:50 sereno Sereno 18 14 77 1013 10 N 0
Oggi h: 04:20 sereno Sereno 20 14 68 1013 10 N 3.7
Oggi h: 03:50 sereno Sereno 19 14 72 1013 10 N 3.7
Oggi h: 03:20 sereno Sereno 20 14 68 1013 10 N 5.5
Oggi h: 02:50 sereno Sereno 20 14 68 1013 10 N 7.4
Oggi h: 02:20 sereno Sereno 20 14 68 1013 10 E 7.4
Oggi h: 01:50 sereno Sereno 20 14 68 1013 10 E 7.4
Oggi h: 01:20 sereno Sereno 21 14 64 1014 10 N 3.7
Oggi h: 00:50 poco_nuvoloso Poco Nuvoloso 23 15 60 1014 10 N 1.8
Oggi h: 00:20 sereno Sereno 24 15 57 1013 10 SO 14.8
Ieri h: 23:50 poco_nuvoloso Poco Nuvoloso 25 15 53 1013 10 O/SO 16.7
Ieri h: 23:20 poco_nuvoloso Poco Nuvoloso 25 16 57 1013 10 O/SO 13
Ieri h: 22:50 poco_nuvoloso Poco Nuvoloso 26 16 54 1013 10 O/SO 14.8
Ieri h: 22:20 poco_nuvoloso Poco Nuvoloso 27 16 50 1013 10 O/SO 14.8
Ieri h: 21:50 nuvoloso Nuvoloso 27 17 54 1013 10 O/SO 20.3
Ieri h: 21:20 nuvoloso Nuvoloso 28 16 48 1012 10 SO 13
Ieri h: 20:50 nuvoloso Nuvoloso 28 15 45 1012 10 O/SO 11.1
Ieri h: 20:20 nuvoloso Nuvoloso 29 16 45 1012 10 SO 11.1
Ieri h: 19:50 nuvoloso Nuvoloso 29 16 45 1012 10 SO 14.8
Ieri h: 19:20 nuvoloso Nuvoloso 30 17 45 1012 10 SO 14.8
Ieri h: 18:50 nuvoloso Nuvoloso 31 15 37 1012 10 O/SO 14.8
Ieri h: 18:20 nuvoloso Nuvoloso 31 14 35 1012 10 O 18.5
Ieri h: 17:50 nuvoloso Nuvoloso 32 14 33 1011 10 O 16.7
Ieri h: 17:20 nuvoloso Nuvoloso 32 14 33 1011 10 O/NO 16.7
Ieri h: 16:50 poco_nuvoloso Poco Nuvoloso 33 15 33 1012 10 O/SO 11.1
Ieri h: 16:20 poco_nuvoloso Poco Nuvoloso 33 14 31 1012 10 O 9.3
Ieri h: 15:50 poco_nuvoloso Poco Nuvoloso 33 14 31 1012 10 O/SO 11.1
Ieri h: 15:20 poco_nuvoloso Poco Nuvoloso 33 14 31 1013 10 N 9.3
Ieri h: 14:50 poco_nuvoloso Poco Nuvoloso 32 13 31 1013 10 N 11.1
Ieri h: 14:20 sereno Sereno 31 15 37 1013 10 O/NO 11.1
Ieri h: 13:50 poco_nuvoloso Poco Nuvoloso 32 15 35 1013 10 N 7.4
Ieri h: 13:20 poco_nuvoloso Poco Nuvoloso 32 13 31 1014 10 N 9.3
Ieri h: 12:50 poco_nuvoloso Poco Nuvoloso 31 14 35 1014 10 O 9.3
Ieri h: 12:20 poco_nuvoloso Poco Nuvoloso 30 14 37 1014 10 SO 9.3
Ieri h: 11:50 poco_nuvoloso Poco Nuvoloso 30 15 40 1014 10 N 7.4
Ieri h: 11:20 nuvoloso_temporali Temporale nelle Vicinanze 27 15 47 1015 10 N 3.7
Ieri h: 10:50 poco_nuvoloso Poco Nuvoloso 28 16 48 1015 10 N 5.5
Ieri h: 10:20 poco_nuvoloso Poco Nuvoloso 28 16 48 1015 10 N 5.5
Ieri h: 09:50 poco_nuvoloso Poco Nuvoloso 26 16 54 1015 10 N 3.7
Ieri h: 09:20 poco_nuvoloso Poco Nuvoloso 25 16 57 1015 10 N 1.8
Ieri h: 08:50 poco_nuvoloso Poco Nuvoloso 24 16 60 1015 10 N 1.8
Ieri h: 08:20 poco_nuvoloso Poco Nuvoloso 24 16 60 1015 10 N 1.8
Ieri h: 07:50 poco_nuvoloso Poco Nuvoloso 23 16 64 1015 10 N 1.8